Location: Paris
(48.6709°N, 2.3750°E)
Time: 13:47:08
(UTC+02:00)

NOAA 18 - Pass Details

Date: 01 July 2022
Orbit: 839 x 860 km, 98.9° (Epoch: 10 August)

Event Time Altitude Azimuth Distance (km) Brightness Sun altitude
Exits shadow 22:56:40 - 150° (SSE) 2,541 7.0 -8.0°
Reaches altitude 10° 22:56:50 10° 150° (SSE) 2,477 7.0 -8.0°
Maximum altitude 23:02:16 64° 70° (ENE) 950 5.4 -8.6°
Drops below altitude 10° 23:07:46 10° 350° (N) 2,506 8.7 -9.2°
Sets 23:10:10 0° 348° (NNW) 3,448 9.7 -9.4°
